FW8369 Weather Reports


Display with metric or nautical units.
time (UTC)temp
F
wind
direction
speed
MPH
gust
MPH
rain 1hr
in
rain 24hr
in
rain mn
in
humidity
%
barometer
mb
20260902100404 86 18 0.0 2.0 0.00 0.55 0.00 79 998.2
20260902095904 86 299 0.0 1.0 0.00 0.55 0.00 79 998.1
20260902095404 86 40 1.0 5.0 0.00 0.55 0.00 79 998.1
20260902094904 86 32 1.0 3.0 0.00 0.55 0.00 79 998.1
20260902094404 86 266 0.0 1.0 0.00 0.55 0.00 79 998.0
20260902093403 86 319 0.0 2.0 0.00 0.55 0.00 79 998.0
20260902092904 86 244 0.0 2.0 0.00 0.55 0.00 80 997.9
20260902092404 86 1 0.0 1.0 0.00 0.55 0.00 79 997.8
20260902091904 87 75 2.0 3.0 0.00 0.55 0.00 78 997.8
20260902091403 87 58 1.0 3.0 0.00 0.55 0.00 78 997.7
20260902090404 87 278 0.0 1.0 0.00 0.55 0.00 78 997.6
20260902085903 87 316 1.0 2.0 0.00 0.55 0.00 78 997.6
20260902085403 87 1 1.0 2.0 0.00 0.55 0.00 78 997.6
20260902084903 88 352 0.0 5.0 0.00 0.55 0.00 78 997.6
20260902084404 88 354 1.0 3.0 0.00 0.55 0.00 77 997.5
20260902083404 87 269 0.0 2.0 0.00 0.55 0.00 79 997.6
20260902082904 87 256 1.0 3.0 0.00 0.55 0.00 78 997.6
20260902082404 87 260 2.0 3.0 0.00 0.55 0.00 78 997.6
20260902081903 87 263 0.0 5.0 0.00 0.55 0.00 78 997.5
20260902080904 88 250 1.0 5.0 0.00 0.55 0.00 77 997.5
20260902080404 88 251 2.0 3.0 0.00 0.55 0.00 77 997.5
20260902075404 88 259 1.0 6.0 0.00 0.55 0.00 75 997.4
20260902074904 90 263 0.0 1.0 0.00 0.55 0.00 74 997.4
20260902073904 89 266 0.0 1.0 0.00 0.55 0.00 76 997.4
20260902073404 89 253 1.0 3.0 0.00 0.55 0.00 76 997.4
20260902072904 89 272 1.0 5.0 0.00 0.55 0.00 76 997.4
20260902071404 89 32 1.0 3.0 0.00 0.55 0.00 76 997.4
20260902070404 90 311 0.0 3.0 0.00 0.55 0.00 74 997.5
20260902065404 91 258 0.0 1.0 0.00 0.55 0.00 74 997.5
20260902064904 90 261 0.0 3.0 0.00 0.55 0.00 74 997.6
20260902064404 90 222 1.0 3.0 0.00 0.55 0.00 75 997.7
20260902063904 90 249 1.0 3.0 0.00 0.55 0.00 75 997.7
20260902062404 89 281 0.0 3.0 0.00 0.55 0.00 76 997.7
20260902061905 89 317 0.0 1.0 0.00 0.55 0.00 76 997.7
20260902061404 89 287 1.0 3.0 0.00 0.55 0.00 77 997.7
20260902060904 89 2 0.0 3.0 0.00 0.55 0.00 76 997.7
20260902060404 89 29 1.0 3.0 0.00 0.55 0.00 75 997.8
20260902055904 89 268 0.0 2.0 0.00 0.55 0.00 76 997.8
20260902055404 89 38 1.0 2.0 0.00 0.55 0.00 76 997.8
20260902054904 91 338 0.0 2.0 0.00 0.55 0.00 74 997.9
20260902054405 90 331 0.0 1.0 0.00 0.55 0.00 75 997.9
20260902053907 89 57 0.0 3.0 0.00 0.55 0.00 77 998.0
20260902053404 89 249 0.0 3.0 0.00 0.55 0.00 77 998.0
20260902052904 88 2 0.0 1.0 0.00 0.55 0.00 77 998.0
20260902052404 88 38 0.0 2.0 0.00 0.55 0.00 77 998.1
20260902051904 88 36 0.0 3.0 0.00 0.55 0.00 78 998.1
20260902051404 87 23 1.0 3.0 0.00 0.55 0.00 78 998.1
20260902050904 87 281 0.0 2.0 0.00 0.55 0.00 79 998.2
20260902050404 86 275 0.0 3.0 0.00 0.56 0.00 80 998.2
20260902045903 86 357 1.0 5.0 0.00 0.56 0.00 80 998.3
20260902045404 86 63 1.0 5.0 0.00 0.56 0.00 80 998.4
20260902044904 86 32 1.0 5.0 0.00 0.57 0.00 79 998.4
20260902044404 86 84 0.0 3.0 0.00 0.57 0.00 81 998.4
20260902043904 85 2 1.0 3.0 0.00 0.58 0.00 80 998.5
20260902042904 85 58 1.0 3.0 0.00 0.59 0.00 81 998.6
20260902041404 85 270 0.0 1.0 0.00 0.63 0.00 81 998.9
20260902040904 85 298 1.0 3.0 0.00 0.64 0.00 80 998.9
20260902040404 86 268 0.0 1.0 0.00 0.68 0.00 80 999.0
20260902035404 86 341 0.0 2.0 0.00 0.74 0.00 80 999.1
20260902034904 86 339 0.0 1.0 0.00 0.83 0.00 80 999.1
20260902034404 86 287 0.0 2.0 0.00 1.03 0.00 80 999.1
20260902033904 86 16 0.0 0.0 0.00 1.09 0.00 79 999.2
20260902032904 87 248 1.0 3.0 0.00 1.15 0.00 78 999.1
20260902032404 87 283 0.0 2.0 0.00 1.16 0.00 78 999.0
20260902031903 87 281 0.0 1.0 0.00 1.16 0.00 79 999.1
20260902031404 86 293 0.0 0.0 0.00 1.16 0.00 81 999.2
20260902030904 85 306 0.0 2.0 0.00 1.16 0.00 82 999.2
20260902030404 84 347 0.0 1.0 0.00 1.16 0.00 82 999.2
20260902025904 85 7 2.0 3.0 0.00 1.17 0.00 81 999.1
20260902024904 84 287 0.0 2.0 0.00 1.18 0.00 83 999.0
20260902024404 84 274 0.0 2.0 0.00 1.18 0.00 83 999.1
20260902022904 83 273 0.0 1.0 0.00 1.18 0.00 84 999.2
20260902022404 83 269 0.0 1.0 0.00 1.18 0.00 85 999.3
20260902021404 82 224 0.0 1.0 0.00 1.18 0.00 85 999.3
20260902020904 82 318 0.0 1.0 0.00 1.18 0.00 85 999.3
20260902020404 82 282 0.0 2.0 0.00 1.18 0.00 85 999.3
20260902015404 82 288 0.0 1.0 0.00 1.18 0.00 86 999.3
20260902014904 82 287 0.0 1.0 0.00 1.18 0.00 86 999.3
20260902014404 81 271 0.0 2.0 0.00 1.18 0.00 86 999.3
20260902013404 81 270 0.0 1.0 0.00 1.18 0.00 87 999.2
20260902012904 81 280 0.0 1.0 0.00 1.18 0.00 87 999.2
20260902012404 81 280 0.0 0.0 0.00 1.18 0.00 88 999.2
20260902011904 81 291 0.0 1.0 0.00 1.18 0.00 88 999.2
20260902011404 81 295 0.0 1.0 0.00 1.18 0.00 88 999.1
20260902010904 80 295 0.0 1.0 0.00 1.18 0.00 89 999.1
20260902010404 80 295 0.0 1.0 0.00 1.20 0.00 89 999.0
20260902005904 80 307 0.0 0.0 0.00 1.20 0.00 89 999.0
20260902005404 80 19 1.0 5.0 0.00 1.20 0.00 89 999.0
20260902004904 80 12 0.0 1.0 0.00 1.20 0.00 89 999.1
20260902003904 79 2 0.0 3.0 0.00 1.20 0.00 89 999.0
20260902003404 79 284 1.0 3.0 0.00 1.20 0.00 89 999.0
20260902002904 79 309 0.0 1.0 0.00 1.20 0.00 90 999.0
20260902002404 79 224 1.0 3.0 0.00 1.20 0.00 90 999.1
20260902001904 79 262 0.0 3.0 0.00 1.20 0.00 90 999.2
20260902001404 79 268 0.0 0.0 0.00 1.20 0.00 90 999.1
20260902000904 79 335 0.0 0.0 0.00 1.20 0.00 90 999.0
20260902000404 79 339 0.0 0.0 0.00 1.20 0.00 90 998.9
20260901235904 79 352 0.0 1.0 0.00 1.20 0.00 90 998.9
20260901235404 79 11 0.0 2.0 0.00 1.20 0.00 90 998.7
20260901234904 79 298 0.0 1.0 0.00 1.20 0.00 91 998.6
20260901234403 79 298 0.0 1.0 0.00 1.20 0.00 91 998.6
20260901233904 79 334 0.0 3.0 0.00 1.20 0.00 91 998.6
20260901233404 79 285 0.0 2.0 0.00 1.20 0.00 91 998.4
20260901232903 79 343 0.0 2.0 0.00 1.20 0.00 91 998.3
20260901231904 79 264 1.0 3.0 0.00 1.20 0.00 91 998.3
20260901231404 79 211 2.0 5.0 0.00 1.20 0.00 91 998.4
20260901230904 79 260 1.0 3.0 0.00 1.20 0.00 91 998.4
20260901230404 79 254 1.0 3.0 0.00 1.20 0.00 91 998.2
20260901225904 79 288 0.0 0.0 0.00 1.20 0.00 91 998.1
20260901225404 79 293 0.0 0.0 0.00 1.20 0.00 92 998.1
20260901224404 79 288 0.0 0.0 0.00 1.20 0.00 92 997.9
20260901223904 79 311 0.0 2.0 0.00 1.20 0.00 91 997.9
20260901223404 79 355 0.0 2.0 0.00 1.20 0.00 91 997.9
20260901222404 79 262 0.0 0.0 0.00 1.20 0.00 92 998.0
20260901221904 79 260 0.0 1.0 0.00 1.20 0.00 92 997.9
20260901220904 79 259 0.0 0.0 0.00 1.20 0.00 92 997.9
20260901215904 79 262 1.0 3.0 0.00 1.20 0.00 92 997.7
20260901215404 79 302 0.0 0.0 0.00 1.20 0.00 92 997.8
20260901214904 79 337 0.0 0.0 0.00 1.20 0.00 92 997.7
20260901214405 79 337 0.0 1.0 0.00 1.20 0.00 92 997.7
20260901212904 79 338 0.0 1.0 0.00 1.20 0.00 92 997.8
20260901212403 79 340 0.0 5.0 0.00 1.20 0.00 92 997.7
20260901211904 79 309 0.0 1.0 0.00 1.20 0.00 92 997.8
20260901211404 79 318 0.0 1.0 0.00 1.20 0.00 92 997.7
20260901210904 79 317 0.0 0.0 0.00 1.20 0.00 93 997.7
20260901210403 79 318 0.0 0.0 0.00 1.20 0.00 93 997.7
20260901205904 79 248 0.0 1.0 0.00 1.20 0.00 93 997.7
20260901204904 79 254 0.0 2.0 0.00 1.20 0.00 92 997.7
20260901204404 79 283 0.0 1.0 0.00 1.20 0.00 92 997.7
20260901203904 79 271 0.0 0.0 0.00 1.20 0.00 92 997.7
20260901202904 79 290 0.0 2.0 0.00 1.20 0.00 92 997.4
20260901202404 79 272 0.0 0.0 0.00 1.20 0.00 92 997.5
20260901201904 80 271 0.0 2.0 0.00 1.20 0.00 92 997.5
20260901201404 79 277 0.0 1.0 0.00 1.20 0.00 92 997.6
20260901200904 79 277 0.0 1.0 0.00 1.20 0.00 92 997.6
20260901195903 79 335 0.0 2.0 0.00 1.20 0.00 92 997.7
20260901195403 79 42 0.0 3.0 0.00 1.20 0.00 92 997.5
20260901194404 79 273 0.0 1.0 0.00 1.20 0.00 92 997.6
20260901193903 79 273 0.0 3.0 0.00 1.20 0.00 92 997.7
20260901193404 79 266 0.0 0.0 0.00 1.20 0.00 92 997.7
20260901192904 79 266 0.0 1.0 0.00 1.20 0.00 92 997.7
20260901192404 79 265 0.0 1.0 0.00 1.20 0.00 93 997.7
20260901191904 79 262 0.0 1.0 0.00 1.20 0.00 92 997.8
20260901191404 79 261 0.0 0.0 0.00 1.20 0.00 93 997.8
20260901190903 79 259 0.0 1.0 0.00 1.20 0.00 93 997.8
20260901190403 79 256 0.0 1.0 0.00 1.20 0.00 93 997.8
20260901185904 79 347 0.0 2.0 0.00 1.20 0.00 93 997.9
20260901185404 79 350 0.0 0.0 0.00 1.20 0.00 93 997.8
20260901184404 79 102 0.0 2.0 0.00 1.20 0.00 93 997.7
20260901183904 79 237 0.0 2.0 0.00 1.20 0.00 93 997.8
20260901182904 79 57 0.0 2.0 0.00 1.20 0.00 93 997.7
20260901181904 79 264 0.0 1.0 0.00 1.20 0.00 94 997.8
20260901181404 79 262 0.0 1.0 0.00 1.20 0.00 94 997.8
20260901180904 79 261 0.0 2.0 0.00 1.20 0.00 94 997.8
20260901180404 79 256 0.0 2.0 0.00 1.20 0.00 94 997.7
20260901175904 79 250 0.0 2.0 0.00 1.20 0.00 94 997.7
20260901174904 79 357 1.0 2.0 0.00 1.20 0.00 94 997.8
20260901174404 80 266 0.0 2.0 0.00 1.20 0.00 94 997.9
20260901173904 80 287 0.0 1.0 0.00 1.20 0.00 94 997.9
20260901173404 80 310 0.0 2.0 0.00 1.20 0.00 94 997.8
20260901172904 80 9 0.0 3.0 0.00 1.20 0.00 94 997.9
20260901172404 80 281 0.0 0.0 0.00 1.20 0.00 94 997.9
20260901171903 80 281 0.0 1.0 0.00 1.20 0.00 94 997.9
20260901170904 80 328 0.0 3.0 0.00 1.20 0.00 94 998.1
20260901170403 80 45 1.0 3.0 0.00 1.20 0.00 94 998.1
20260901165904 80 308 0.0 1.0 0.00 1.20 0.00 94 998.2
20260901165403 80 326 0.0 0.0 0.00 1.20 0.00 94 998.1
20260901164904 80 359 0.0 1.0 0.00 1.20 0.00 95 998.2
20260901164404 80 287 0.0 1.0 0.00 1.20 0.00 95 998.2
20260901163904 80 289 0.0 1.0 0.01 1.20 0.00 95 998.3
20260901163404 80 278 0.0 1.0 0.01 1.20 0.00 95 998.3
20260901162904 80 283 0.0 0.0 0.01 1.20 0.00 95 998.3
20260901162404 80 283 0.0 1.0 0.01 1.20 0.00 96 998.3
20260901160904 80 264 0.0 0.0 0.03 1.20 0.00 96 998.4
20260901160404 80 264 0.0 1.0 0.03 1.20 0.00 95 998.4
20260901155905 80 262 0.0 2.0 0.03 1.20 1.20 96 998.5
20260901155404 80 304 0.0 1.0 0.03 1.20 1.20 96 998.6
20260901154904 80 303 0.0 1.0 0.03 1.20 1.20 96 998.5
20260901154404 80 303 0.0 1.0 0.03 1.20 1.20 95 998.5
20260901153904 80 314 0.0 2.0 0.03 1.19 1.19 95 998.5
20260901153404 80 317 0.0 1.0 0.03 1.19 1.19 95 998.3
20260901152404 80 37 2.0 5.0 0.04 1.19 1.19 95 998.4
20260901151904 80 30 2.0 5.0 0.04 1.18 1.18 95 998.3
20260901150904 80 350 0.0 2.0 0.05 1.17 1.17 95 998.3
20260901150404 80 39 2.0 3.0 0.07 1.17 1.17 95 998.2
20260901145904 80 348 1.0 2.0 0.08 1.17 1.17 95 998.3
20260901144904 80 320 0.0 0.0 0.10 1.17 1.17 95 998.3
20260901144404 80 320 0.0 1.0 0.13 1.17 1.17 95 998.3
20260901143904 80 321 0.0 0.0 0.14 1.16 1.16 95 998.3
20260901143404 80 322 0.0 1.0 0.17 1.16 1.16 96 998.3
20260901142904 80 322 0.0 1.0 0.22 1.16 1.16 95 998.2
20260901142404 80 351 0.0 3.0 0.29 1.15 1.15 95 998.3
20260901141904 80 314 0.0 0.0 0.30 1.14 1.14 95 998.2
20260901141404 80 314 0.0 1.0 0.31 1.13 1.13 95 998.2
20260901140404 80 316 0.0 1.0 0.30 1.10 1.10 95 998.1
20260901135404 81 326 1.0 3.0 0.30 1.08 1.08 94 998.0
20260901134904 81 35 1.0 3.0 0.29 1.07 1.07 94 998.1
20260901134404 81 349 0.0 1.0 0.26 1.04 1.04 94 998.0
20260901133904 81 7 0.0 0.0 0.24 1.02 1.02 94 998.0
20260901133404 82 8 0.0 0.0 0.21 0.99 0.99 93 998.0
20260901132904 82 12 0.0 3.0 0.16 0.94 0.94 92 997.8
20260901132404 82 349 0.0 2.0 0.08 0.86 0.86 91 997.7
20260901131404 82 337 0.0 1.0 0.04 0.82 0.82 90 997.5
20260901130904 83 327 1.0 3.0 0.03 0.81 0.81 89 997.4
20260901130404 83 35 1.0 3.0 0.02 0.81 0.80 88 997.3
20260901125904 83 45 1.0 2.0 0.01 0.80 0.79 87 997.2
20260901125404 84 8 0.0 2.0 0.00 0.80 0.78 87 997.1
20260901124903 84 349 1.0 3.0 0.00 0.80 0.78 87 997.2
20260901124404 83 26 1.0 2.0 0.00 0.81 0.78 87 997.1
20260901123904 83 327 1.0 6.0 0.00 0.81 0.78 87 997.1
20260901123404 83 45 2.0 5.0 0.00 0.81 0.78 87 997.2
20260901122904 83 46 1.0 3.0 0.00 0.81 0.78 87 997.0
20260901122404 83 23 0.0 2.0 0.00 0.81 0.78 87 996.8
20260901121904 83 274 0.0 0.0 0.00 0.81 0.78 88 996.8
20260901121404 83 343 0.0 0.0 0.00 0.81 0.78 88 996.8
20260901120904 83 319 1.0 2.0 0.00 0.81 0.78 88 996.8
20260901120404 83 336 0.0 1.0 0.00 0.81 0.78 89 996.8
20260901115904 83 327 1.0 2.0 0.01 0.81 0.78 89 996.7
20260901115404 83 313 0.0 1.0 0.04 0.81 0.78 90 996.8
20260901114904 83 318 0.0 1.0 0.09 0.81 0.78 91 996.6
20260901114404 83 318 0.0 1.0 0.11 0.81 0.78 91 996.6
20260901113904 83 320 0.0 1.0 0.13 0.81 0.78 91 996.5
20260901112904 82 319 0.0 1.0 0.13 0.81 0.78 91 996.4
20260901111404 82 4 1.0 2.0 0.13 0.81 0.78 92 996.5
20260901110904 83 272 0.0 1.0 0.13 0.81 0.78 92 996.4
20260901110404 83 269 0.0 0.0 0.13 0.81 0.78 92 996.4
20260901105904 83 9 0.0 2.0 0.12 0.80 0.77 91 996.4
20260901105404 84 52 1.0 3.0 0.09 0.77 0.74 89 996.4
20260901104904 85 347 1.0 3.0 0.04 0.72 0.69 87 996.3
20260901104404 85 321 0.0 1.0 0.02 0.70 0.67 86 996.2
20260901103904 85 325 0.0 0.0 0.00 0.68 0.65 86 996.1
20260901103404 85 335 0.0 0.0 0.00 0.68 0.65 86 996.0
20260901102904 85 339 0.0 0.0 0.00 0.68 0.65 86 996.0
20260901102404 85 325 0.0 0.0 0.00 0.68 0.65 87 996.0
20260901101903 85 328 0.0 0.0 0.00 0.68 0.65 87 996.0
20260901101404 85 331 0.0 0.0 0.00 0.68 0.65 87 996.0
20260901100904 85 333 0.0 0.0 0.00 0.68 0.65 86 996.0